Flag for U.S.A. Weather past 2 weeks in Seattle, Washington, U.S.A.

Now
79 °F

Clear.


Feels Like: 79 °F
Forecast: 68 / 88 °F
Wind: No wind

Location: Seattle Boeing Field

Current Time: Jul 4, 2015 at 11:22:29 PM

Latest Report: Jul 4, 2015 at 10:53 PM


Visibility: 10 mi

Pressure: 29.77 "Hg

Humidity: 31%

Dew point: 46 °F

Location of SeattleLocation

Historic Weather in Seattle — Graph

°F

Seattle temperature yesterday

Maximum temperature yesterday: 92 °F (at 3:53 PM)
Minimum temperature yesterday: 68 °F (at 4:53 AM)
Average temperature yesterday: 80 °F

Past Weeks' High & Low Weather Summary

 TemperatureHumidityPressure
High92 °F (Jun 27, 4:53 PM)81% (Jun 30, 3:53 AM)30.16 "Hg (Jun 30, 3:53 AM)
Low56 °F (Jun 23, 5:53 AM)15% (Jul 4, 3:53 PM)29.75 "Hg (Jul 4, 6:53 PM)
Average75 °F47%30.00 "Hg
* Reported Jun 19 9:53 PM — Jul 4 9:53 PM, Seattle, Weather by CustomWeather, © 2015

Note: Actual official high and low records may vary slightly from our data, if they occured in-between our weather recording intervals... More about our weather records

Advertising

Seattle weather history for previous 24 hours

 ConditionsComfort  
Time TempWeatherWind HumidityBarometerVisibility
9:53 PM
Sat, Jul 4
81 °FSunny.3 mph27%29.77 "Hg10 mi
8:53 PM85 °FScattered clouds.No wind23%29.75 "Hg10 mi
7:53 PM89 °FSunny.No wind19%29.76 "Hg10 mi
6:53 PM91 °FPassing clouds.8 mph17%29.75 "Hg10 mi
5:53 PM91 °FSunny.9 mph16%29.76 "Hg10 mi
4:53 PM92 °FSunny.9 mph16%29.77 "Hg10 mi
3:53 PM89 °FSunny.10 mph15%29.80 "Hg10 mi
2:53 PM89 °FSunny.9 mph20%29.81 "Hg10 mi
1:53 PM88 °FSunny.3 mph22%29.83 "Hg10 mi
12:53 PM86 °FSunny.5 mph25%29.84 "Hg10 mi
11:53 AM82 °FSunny.8 mph29%29.85 "Hg10 mi
10:53 AM79 °FSunny.7 mph41%29.86 "Hg10 mi
9:53 AM76 °FSunny.3 mph47%29.87 "Hg10 mi
8:53 AM73 °FSunny.No wind53%29.88 "Hg10 mi
7:53 AM69 °FSunny.No wind59%29.89 "Hg10 mi
6:53 AM66 °FSunny.5 mph63%29.89 "Hg10 mi
5:53 AM63 °FClear.5 mph70%29.88 "Hg10 mi
4:53 AM65 °FClear.6 mph68%29.87 "Hg10 mi
3:53 AM68 °FClear.No wind61%29.87 "Hg10 mi
2:53 AM69 °FClear.3 mph59%29.88 "Hg10 mi
1:53 AM72 °FClear.No wind53%29.87 "Hg10 mi
12:53 AM72 °FClear.No wind52%29.87 "Hg10 mi
11:53 PM
Fri, Jul 3
77 °FClear.5 mph45%29.86 "Hg10 mi
Weather by CustomWeather, © 2015

See weather overviewHow to use our weather pages